Grand Marais, MN

5:25 PM CST on November 11, 2019 (GMT -0600)
Grand Marais

Weather History for KGNA - September, 2019

Change the Weather History Date:

Saturday, September 21, 2019

  Actual Average (WUND) Record (WUND)
Temperature  
Mean Temperature 60 °F -  
Max Temperature 64 °F - - (-1)
Min Temperature 57 °F - - (-1)
Degree Days  
Heating Degree Days 4    
Growing Degree Days 10 (Base 50)    
Moisture  
Dew Point 60 °F    
Average Humidity 98    
Maximum Humidity 100    
Minimum Humidity 90    
Precipitation  
Precipitation 0.15 in - - ()
Sea Level Pressure  
Sea Level Pressure 29.77 in    
Wind  
Wind Speed 5 mph (ENE)    
Max Wind Speed 8 mph    
Max Gust Speed -    
Averages and records for this station are not official NWS values.
T = Trace of Precipitation, MM = Missing Value Source: NWS Daily Summary

Daily Weather History Graph

Daily Weather History Graph

Search for Another Location

Airport or City:

Astronomy

Sep. 21, 2019 Rise Set
Actual Time 6:46 AM CDT 7:01 PM CDT
Civil Twilight 6:15 AM CDT 7:32 PM CDT
Nautical Twilight 5:39 AM CDT 8:08 PM CDT
Astronomical Twilight 5:01 AM CDT 8:46 PM CDT
Moon 11:10 PM CDT (9/21) 2:20 PM CDT (9/21)
Length of Visible Light 13h 16m
Length of Day
12h 15m
Waning Gibbous, 54% of the Moon is Illuminated
Sep 21
Waning Gibbous
Sep 21
Last Quarter
Sep 28
New
Oct 5
First Quarter
Oct 13
Full

Hourly Weather History & Observations

Time (CDT) Temp. Dew Point Humidity Pressure Visibility Wind Dir Wind Speed Gust Speed Precip Events Conditions
12:56 AM 59.0 °F 59.0 °F 100% 29.98 in - ENE 6.9 mph - N/A   Unknown
1:56 AM 57.9 °F 57.9 °F 100% 29.96 in - NE 5.8 mph - N/A   Unknown
2:56 AM 59.0 °F 59.0 °F 100% 29.94 in - NE 8.1 mph - N/A   Unknown
3:56 AM 60.1 °F 59.0 °F 96% 29.91 in - ENE 6.9 mph - N/A   Unknown
4:56 AM 60.1 °F 59.0 °F 96% 29.90 in - ENE 6.9 mph - N/A   Unknown
6:56 AM 59.0 °F 59.0 °F 100% 29.86 in - ENE 8.1 mph - N/A   Unknown
7:56 AM 60.1 °F 59.0 °F 96% 29.84 in - ENE 8.1 mph - N/A   Unknown
8:56 AM 64.0 °F 62.1 °F 93% 29.82 in - ENE 8.1 mph - N/A   Unknown
9:56 AM 64.0 °F 61.0 °F 90% 29.81 in - ENE 3.5 mph - N/A   Unknown
10:56 AM 60.1 °F 60.1 °F 100% 29.80 in - ENE 6.9 mph - 0.01 in   Unknown
11:56 AM 62.1 °F 61.0 °F 96% 29.77 in - ENE 8.1 mph - 0.02 in   Unknown
12:56 PM 64.9 °F 64.0 °F 97% 29.75 in - Calm Calm - 0.08 in   Unknown
1:56 PM 64.0 °F 64.0 °F 100% 29.68 in - NE 3.5 mph - 0.01 in   Unknown
2:56 PM 64.0 °F 64.0 °F 100% 29.71 in - Calm Calm - N/A   Unknown
3:56 PM 62.1 °F 62.1 °F 100% 29.71 in - Calm Calm - N/A   Unknown
4:56 PM 61.0 °F 61.0 °F 100% 29.69 in - East 4.6 mph - N/A   Unknown
5:56 PM 61.0 °F 61.0 °F 100% 29.68 in - Calm Calm - N/A   Unknown
6:56 PM 60.1 °F 60.1 °F 100% 29.67 in - Calm Calm - 0.02 in   Unknown
7:56 PM 59.0 °F 59.0 °F 100% 29.65 in - Calm Calm - 0.01 in   Unknown
8:56 PM 60.1 °F 59.0 °F 96% 29.65 in - Calm Calm - N/A   Unknown
9:56 PM 57.9 °F 57.9 °F 100% 29.66 in - South 4.6 mph - N/A   Unknown
10:56 PM 57.9 °F 57.9 °F 100% 29.67 in - Calm Calm - N/A   Unknown
11:56 PM 57.0 °F 57.0 °F 100% 29.67 in - Calm Calm - N/A   Unknown